星链-38039(STARLINK-38039)

导读

STARLINK-38039(NORAD编号69719,国际标识2025-158M)是太空探索技术公司(SpaceX)星链低轨通信星座的V2-mini型组网卫星,隶属于星链17-2组(极轨壳层),由猎鹰9号火箭发射入轨,设计使用寿命约5年。它运行在距地表约550公里的近地轨道,搭载相控阵天线与氩霍尔效应推力器,单星容量为初代星链的4倍,可提供千兆级高速宽带互联网服务,同时其存在也可能对光学和射电天文观测产生一定干扰,服务于星链全球高速网络覆盖的组网目标。

Basic Information
目录编号:
69719
目录名称:
STARLINK-38039
国际标识:
2026-147R
轨道中心:
EARTH
卫星名称:
星链-38039
卫星全名:
星链-38039(STARLINK-38039)
卫星状态:
在轨 (已飞行68 天)
发射日期:
2026-06-28 UTC
国别 :
美国 (US)
星等 :
--
Orbit Information
数据来源 国际轨道数据
星历时间: 2026-09-03T09:36:32+0800
1天前
查看轨道信息
半长轴: 6843.795km
偏心率: 0.000049
轨道倾角: 97.285°
近地点辐角 38.404°
升交点赤经 282.702°
平近点角 321.724°
近地点: 465.322km
远地点: 465.994km
周期: 93.909分钟
每日圈数: 15.334065
Detailed Information
固有亮度:
5
最大亮度:
2.5
卫星平台:
Starlink V1.0
覆盖范围:
全球
运营商:
太空探索技术公司
运营商所在国:
美国
制造商(研发单位):
太空探索技术公司
制造商所在国:
美国
使用方式:
暂无
Satellite Introduction
Starlink 计划是 SpaceX 推出的全球卫星互联网项目,通过发射低轨道卫星,为全球尤其是偏远地区提供高速、低延迟的互联网服务。自 2019 年起,Starlink 已部署数千颗卫星,旨在缩小全球数字鸿沟,推动互联网普及。该项目还为军事、航空等行业提供通信支持,带来广泛经济效益。
2D Orbit Map
3D Orbit Map
Orbit Altitude Analysis Chart
Orbit Inclination Analysis Chart
Orbit Comprehensive Analysis Chart
View Comprehensive Chart
Conjunction Data List
Event ID Objects TCA Miss Dist (km) Collision Risk Probability Collision Risk Index (CRI) Action
CDM_260906-065605-313806-971921
2026-09-06T
06:56:55+0000
2.125 km
极远距离
2.396402E-6 低风险 0.43
CDM_260905-154104-353406-971921
2026-09-05T
15:41:15+0000
2.276 km
极远距离
2.120838E-6 低风险 0.42
CDM_260906-113605-340606-971921
2026-09-06T
11:36:05+0000
2.261 km
极远距离
1.778317E-6 低风险 0.4
CDM_260905-210505-363606-971921
2026-09-05T
21:05:54+0000
2.833 km
极远距离
1.423225E-6 低风险 0.38
CDM_260906-082905-231006-971921
2026-09-06T
08:29:43+0000
2.409 km
极远距离
1.387326E-6 低风险 0.38
CDM_260901-165704-789806-971921
2026-09-01T
16:57:01+0000
2.817 km
极远距离
1.327872E-6 低风险 0.37
CDM_260906-113704-844906-971921
2026-09-06T
11:37:08+0000
2.930 km
极远距离
1.315244E-6 低风险 0.37
CDM_260904-213905-181506-971921
2026-09-04T
21:39:03+0000
2.589 km
极远距离
1.17405E-6 低风险 0.36